| time (UTC) | temp F | wind direction | speed knots | gust knots | rain 1hr in | rain 24hr in | rain mn in | humidity % | barometer mb |
| 20260504232018 | 71 | 270 | 3.5 | 7.0 | 0.00 | 0.00 | 0.00 | 37 | 1002.2 |
| 20260504231018 | 72 | 248 | 1.7 | 5.2 | 0.00 | 0.00 | 0.00 | 37 | 1002.1 |
| 20260504230018 | 72 | 248 | 3.5 | 10.4 | 0.00 | 0.00 | 0.00 | 37 | 1002.1 |
| 20260504225018 | 72 | 248 | 4.3 | 10.4 | 0.00 | 0.00 | 0.00 | 36 | 1002.1 |
| 20260504224038 | 72 | 225 | 2.6 | 7.0 | 0.00 | 0.00 | 0.00 | 37 | 1002.1 |
| 20260504223018 | 73 | 248 | 3.5 | 9.6 | 0.00 | 0.00 | 0.00 | 35 | 1002.0 |
| 20260504222019 | 74 | 248 | 3.5 | 9.6 | 0.00 | 0.00 | 0.00 | 36 | 1002.0 |
| 20260504221018 | 74 | 248 | 4.3 | 9.6 | 0.00 | 0.00 | 0.00 | 35 | 1002.1 |
| 20260504220038 | 74 | 270 | 3.5 | 8.7 | 0.00 | 0.00 | 0.00 | 35 | 1002.1 |
| 20260504215038 | 73 | 270 | 6.1 | 12.2 | 0.00 | 0.00 | 0.00 | 35 | 1002.1 |
| 20260504214018 | 73 | 225 | 2.6 | 7.8 | 0.00 | 0.00 | 0.00 | 38 | 1002.2 |
| 20260504213020 | 73 | 248 | 5.2 | 9.6 | 0.00 | 0.00 | 0.00 | 36 | 1002.3 |
| 20260504212018 | 73 | 225 | 4.3 | 7.8 | 0.00 | 0.00 | 0.00 | 38 | 1002.5 |
| 20260504211038 | 73 | 180 | 4.3 | 8.7 | 0.00 | 0.00 | 0.00 | 38 | 1002.6 |
| 20260504210038 | 73 | 248 | 3.5 | 8.7 | 0.00 | 0.00 | 0.00 | 38 | 1002.7 |
| 20260504205706 | 73 | 270 | 6.1 | 13.9 | 0.00 | 0.00 | 0.00 | 37 | 1002.7 |
| 20260504201020 | 73 | 270 | 5.2 | 11.3 | 0.00 | 0.00 | 0.00 | 38 | 1003.1 |
| 20260504200019 | 73 | 248 | 4.3 | 14.8 | 0.00 | 0.00 | 0.00 | 39 | 1003.3 |
| 20260504195020 | 73 | 248 | 4.3 | 13.9 | 0.00 | 0.00 | 0.00 | 38 | 1003.4 |
| 20260504194040 | 72 | 248 | 4.3 | 12.2 | 0.00 | 0.00 | 0.00 | 41 | 1003.6 |
| 20260504193020 | 72 | 248 | 6.1 | 14.8 | 0.00 | 0.00 | 0.00 | 42 | 1003.7 |
| 20260504192018 | 72 | 225 | 6.1 | 14.8 | 0.00 | 0.00 | 0.00 | 41 | 1003.8 |
| 20260504191019 | 72 | 203 | 7.0 | 16.5 | 0.00 | 0.00 | 0.00 | 43 | 1004.0 |
| 20260504190020 | 71 | 248 | 6.1 | 13.9 | 0.00 | 0.00 | 0.00 | 42 | 1004.1 |
| 20260504185040 | 71 | 225 | 4.3 | 9.6 | 0.00 | 0.00 | 0.00 | 44 | 1004.3 |
| 20260504184019 | 70 | 270 | 8.7 | 15.6 | 0.00 | 0.00 | 0.00 | 44 | 1004.4 |
| 20260504183059 | 71 | 248 | 7.0 | 13.9 | 0.00 | 0.00 | 0.00 | 43 | 1004.6 |
| 20260504182020 | 70 | 248 | 5.2 | 12.2 | 0.00 | 0.00 | 0.00 | 46 | 1004.6 |
| 20260504181020 | 70 | 270 | 7.8 | 16.5 | 0.00 | 0.00 | 0.00 | 47 | 1004.6 |
| 20260504180019 | 69 | 270 | 7.0 | 13.0 | 0.00 | 0.00 | 0.00 | 47 | 1004.8 |
| 20260504175019 | 69 | 270 | 8.7 | 17.4 | 0.00 | 0.00 | 0.00 | 48 | 1004.7 |
| 20260504174040 | 69 | 270 | 7.8 | 18.2 | 0.00 | 0.00 | 0.00 | 49 | 1004.8 |
| 20260504173019 | 69 | 270 | 5.2 | 13.9 | 0.00 | 0.00 | 0.00 | 50 | 1004.8 |
| 20260504172020 | 68 | 248 | 7.0 | 13.9 | 0.00 | 0.00 | 0.00 | 51 | 1004.8 |
| 20260504171019 | 68 | 248 | 6.1 | 11.3 | 0.00 | 0.00 | 0.00 | 50 | 1004.8 |
| 20260504151059 | 63 | 248 | 6.1 | 13.9 | 0.00 | 0.00 | 0.00 | 56 | 1006.0 |
| 20260504141019 | 61 | 203 | 4.3 | 11.3 | 0.00 | 0.00 | 0.00 | 55 | 1005.9 |
| 20260504081019 | 51 | 225 | 3.5 | 8.7 | 0.00 | 0.00 | 0.00 | 58 | 1007.2 |
| 20260504050020 | 51 | 248 | 2.6 | 9.6 | 0.00 | 0.00 | 0.00 | 59 | 1008.3 |
| 20260504045020 | 51 | 225 | 1.7 | 6.1 | 0.00 | 0.00 | 0.00 | 60 | 1008.3 |
| 20260504044019 | 51 | 203 | 1.7 | 4.3 | 0.00 | 0.00 | 0.00 | 60 | 1008.3 |
| 20260504043038 | 51 | 203 | 0.9 | 4.3 | 0.00 | 0.00 | 0.00 | 59 | 1008.4 |
| 20260504042020 | 52 | 203 | 1.7 | 7.8 | 0.00 | 0.00 | 0.00 | 58 | 1008.3 |
| 20260504041020 | 52 | 225 | 2.6 | 6.1 | 0.00 | 0.00 | 0.00 | 57 | 1008.4 |
| 20260504040020 | 52 | 248 | 1.7 | 6.1 | 0.00 | 0.00 | 0.00 | 57 | 1008.4 |
| 20260504035019 | 53 | 225 | 3.5 | 10.4 | 0.00 | 0.00 | 0.00 | 56 | 1008.4 |
| 20260504034019 | 53 | 225 | 3.5 | 9.6 | 0.00 | 0.00 | 0.00 | 57 | 1008.3 |
| 20260504033020 | 53 | 225 | 2.6 | 6.1 | 0.00 | 0.00 | 0.00 | 56 | 1008.3 |
| 20260504032020 | 53 | 180 | 3.5 | 13.0 | 0.00 | 0.00 | 0.00 | 56 | 1008.4 |
| 20260504031019 | 53 | 225 | 2.6 | 6.1 | 0.00 | 0.00 | 0.00 | 56 | 1008.4 |
| 20260504030040 | 53 | 248 | 1.7 | 6.1 | 0.00 | 0.00 | 0.00 | 55 | 1008.3 |
| 20260504025020 | 54 | 248 | 2.6 | 7.0 | 0.00 | 0.00 | 0.00 | 54 | 1008.4 |
| 20260504024019 | 54 | 225 | 3.5 | 7.8 | 0.00 | 0.00 | 0.00 | 54 | 1008.5 |
| 20260504023039 | 54 | 270 | 4.3 | 9.6 | 0.00 | 0.00 | 0.00 | 54 | 1008.4 |
| 20260504022019 | 54 | 270 | 6.1 | 12.2 | 0.00 | 0.00 | 0.00 | 54 | 1008.5 |
| 20260504021020 | 54 | 248 | 3.5 | 9.6 | 0.00 | 0.00 | 0.00 | 55 | 1008.6 |
| 20260504020019 | 54 | 203 | 2.6 | 7.0 | 0.00 | 0.00 | 0.00 | 53 | 1008.7 |
| 20260504015019 | 54 | 225 | 2.6 | 6.1 | 0.00 | 0.00 | 0.00 | 53 | 1008.7 |
| 20260504014019 | 55 | 248 | 4.3 | 10.4 | 0.00 | 0.00 | 0.00 | 52 | 1008.9 |
| 20260504013019 | 54 | 248 | 4.3 | 8.7 | 0.00 | 0.00 | 0.00 | 52 | 1008.8 |
| 20260504012019 | 55 | 270 | 6.1 | 14.8 | 0.00 | 0.00 | 0.00 | 52 | 1008.8 |
| 20260504011019 | 55 | 248 | 6.1 | 14.8 | 0.00 | 0.00 | 0.00 | 51 | 1008.7 |
| 20260504010019 | 55 | 270 | 5.2 | 13.9 | 0.00 | 0.00 | 0.00 | 53 | 1008.5 |
| 20260504005019 | 55 | 248 | 7.0 | 13.9 | 0.00 | 0.00 | 0.00 | 53 | 1008.4 |
| 20260504004019 | 54 | 248 | 7.8 | 16.5 | 0.00 | 0.00 | 0.00 | 53 | 1008.8 |
| 20260504003019 | 54 | 270 | 6.1 | 13.9 | 0.00 | 0.00 | 0.00 | 55 | 1008.8 |
| 20260504002019 | 54 | 270 | 10.4 | 22.6 | 0.00 | 0.00 | 0.00 | 55 | 1008.8 |
| 20260504001019 | 54 | 270 | 7.0 | 14.8 | 0.00 | 0.00 | 0.00 | 55 | 1009.0 |
| 20260504000019 | 54 | 270 | 10.4 | 16.5 | 0.00 | 0.00 | 0.00 | 53 | 1008.8 |
| 20260503235019 | 54 | 270 | 8.7 | 13.0 | 0.00 | 0.00 | 0.00 | 51 | 1008.8 |
| 20260503234119 | 54 | 270 | 7.0 | 11.3 | 0.00 | 0.00 | 0.00 | 52 | 1008.6 |
| 20260503233019 | 54 | 270 | 8.7 | 16.5 | 0.00 | 0.00 | 0.00 | 51 | 1008.5 |